TRA25W LPMA-EHAM

Flight info

Callsign TRA25W
Flight time 3h 34m
Altitude 36000
Route DEGUN DCT MARUM DCT DEMOS/N0454F380 DCT LOTEE DCT AZFIC DCT ERIGA DCT GODIX DCT PODEM DCT BAZOS DCT BELDI DCT VEKIN DCT ADUTO N873 FERDI/N0373F240 Y18 DENUT
Aircraft B738/M-SDE2E3FGHIRWXY/LB1

Departure

Time 2026-05-04 17:57
Airport Cristiano Ronaldo International Airport (LPMA)

Arrival

Time 2026-05-04 21:31
Airport Amsterdam Airport Schiphol (EHAM)
Time Latitude Longitude Altitude Speed Heading
2026-05-04 17:41 32.69362 -16.77660 175 ft 0 kts 137°
2026-05-04 17:51 32.69374 -16.77674 175 ft 2 kts 133°
2026-05-04 17:51 32.69385 -16.77688 175 ft 2 kts 127°
2026-05-04 17:51 32.69394 -16.77705 175 ft 2 kts 108°
2026-05-04 17:51 32.69394 -16.77724 175 ft 2 kts 59°
2026-05-04 17:52 32.69388 -16.77734 175 ft 1 kts 47°
2026-05-04 17:52 32.69387 -16.77735 175 ft 0 kts 47°
2026-05-04 17:53 32.69389 -16.77732 175 ft 2 kts 47°
2026-05-04 17:53 32.69409 -16.77707 175 ft 7 kts 45°
2026-05-04 17:53 32.69461 -16.77644 175 ft 14 kts 46°
2026-05-04 17:53 32.69543 -16.77544 175 ft 20 kts 46°
2026-05-04 17:54 32.69649 -16.77413 175 ft 24 kts 46°
2026-05-04 17:54 32.69760 -16.77276 175 ft 23 kts 46°
2026-05-04 17:54 32.69881 -16.77168 175 ft 22 kts
2026-05-04 17:54 32.70036 -16.77159 175 ft 24 kts 29°
2026-05-04 17:55 32.70163 -16.77011 175 ft 27 kts 44°
2026-05-04 17:55 32.70305 -16.76845 175 ft 30 kts 45°
2026-05-04 17:55 32.70456 -16.76666 175 ft 31 kts 45°
2026-05-04 17:55 32.70607 -16.76499 175 ft 24 kts 39°
2026-05-04 17:56 32.70684 -16.76459 175 ft 8 kts 31°
2026-05-04 17:56 32.70662 -16.76434 175 ft 8 kts 205°
2026-05-04 17:56 32.70588 -16.76514 175 ft 39 kts 225°
2026-05-04 17:56 32.70211 -16.76944 175 ft 110 kts 225°
2026-05-04 17:57 32.69522 -16.77733 209 ft 163 kts 220°
2026-05-04 17:57 32.68666 -16.78655 900 ft 166 kts 221°
2026-05-04 17:57 32.67739 -16.79628 1396 ft 194 kts 221°
2026-05-04 17:57 32.66653 -16.80729 1787 ft 210 kts 221°
2026-05-04 17:58 32.65351 -16.81588 2196 ft 230 kts 190°
2026-05-04 17:58 32.63707 -16.81270 2500 ft 256 kts 152°
2026-05-04 17:58 32.62356 -16.79845 3205 ft 267 kts 124°
2026-05-04 17:58 32.61697 -16.77792 4137 ft 271 kts 96°
2026-05-04 17:59 32.61769 -16.75550 5055 ft 274 kts 83°
2026-05-04 17:59 32.62086 -16.73309 5893 ft 278 kts 80°
2026-05-04 17:59 32.62809 -16.68756 7516 ft 285 kts 80°
2026-05-04 18:00 32.63166 -16.66406 8298 ft 290 kts 81°
2026-05-04 18:00 32.63513 -16.64033 8799 ft 294 kts 81°
2026-05-04 18:00 32.63855 -16.61631 9006 ft 296 kts 81°
2026-05-04 18:00 32.64191 -16.59248 8998 ft 296 kts 81°
2026-05-04 18:01 32.64528 -16.56843 9009 ft 295 kts 81°
2026-05-04 18:01 32.65135 -16.54531 8993 ft 295 kts 58°
2026-05-04 18:01 32.66428 -16.52659 9016 ft 294 kts 45°
2026-05-04 18:02 32.69385 -16.49296 9006 ft 295 kts 43°
2026-05-04 18:02 32.70881 -16.47630 9010 ft 295 kts 43°
2026-05-04 18:02 32.72376 -16.45957 9018 ft 295 kts 43°
2026-05-04 18:02 32.73871 -16.44276 9022 ft 297 kts 43°
2026-05-04 18:03 32.75372 -16.42580 9009 ft 298 kts 43°
2026-05-04 18:03 32.76853 -16.40899 9007 ft 297 kts 43°
2026-05-04 18:03 32.77861 -16.39752 9004 ft 297 kts 43°
2026-05-04 18:03 32.79830 -16.37509 9027 ft 296 kts 43°
2026-05-04 18:04 32.81319 -16.35810 9008 ft 297 kts 43°
2026-05-04 18:04 32.82811 -16.34105 9010 ft 296 kts 43°
2026-05-04 18:04 32.85269 -16.31291 9021 ft 294 kts 43°
2026-05-04 18:05 32.86746 -16.29601 9018 ft 295 kts 43°
2026-05-04 18:05 32.88221 -16.27910 9015 ft 295 kts 43°
2026-05-04 18:05 32.89695 -16.26219 9016 ft 294 kts 44°
2026-05-04 18:05 32.91167 -16.24531 9018 ft 294 kts 44°
2026-05-04 18:06 32.94112 -16.21149 9021 ft 294 kts 44°
2026-05-04 18:06 32.95582 -16.19459 9020 ft 294 kts 44°
2026-05-04 18:06 32.97055 -16.17765 9023 ft 294 kts 44°
2026-05-04 18:07 32.98529 -16.16071 9023 ft 294 kts 44°
2026-05-04 18:07 33.00002 -16.14375 9021 ft 295 kts 44°
2026-05-04 18:07 33.01478 -16.12676 9041 ft 297 kts 44°
2026-05-04 18:07 33.02979 -16.10947 9551 ft 302 kts 44°
2026-05-04 18:08 33.04485 -16.09211 10440 ft 302 kts 43°
2026-05-04 18:08 33.06044 -16.07414 10773 ft 324 kts 43°
2026-05-04 18:08 33.07720 -16.05481 11060 ft 344 kts 43°
2026-05-04 18:08 33.09457 -16.03476 11649 ft 351 kts 43°
2026-05-04 18:09 33.12970 -15.99416 13164 ft 357 kts 43°
2026-05-04 18:09 33.16584 -15.95235 14504 ft 366 kts 43°
2026-05-04 18:10 33.18420 -15.93110 15161 ft 370 kts 43°
2026-05-04 18:10 33.20273 -15.90962 15887 ft 373 kts 43°
2026-05-04 18:10 33.22146 -15.88791 16604 ft 377 kts 43°
2026-05-04 18:10 33.24043 -15.86590 17251 ft 382 kts 43°
2026-05-04 18:11 33.25960 -15.84365 17867 ft 386 kts 43°
2026-05-04 18:11 33.27901 -15.82109 18468 ft 391 kts 43°
2026-05-04 18:11 33.29861 -15.79831 18983 ft 395 kts 43°
2026-05-04 18:11 33.31842 -15.77527 19509 ft 399 kts 43°
2026-05-04 18:12 33.33844 -15.75196 20026 ft 403 kts 43°
2026-05-04 18:12 33.35866 -15.72842 20535 ft 407 kts 43°
2026-05-04 18:12 33.37904 -15.70465 21042 ft 411 kts 43°
2026-05-04 18:12 33.39934 -15.68099 21526 ft 415 kts 43°
2026-05-04 18:13 33.42092 -15.65770 22017 ft 418 kts 36°
2026-05-04 18:13 33.44542 -15.63882 22523 ft 420 kts 27°
2026-05-04 18:13 33.49713 -15.60499 23522 ft 428 kts 25°
2026-05-04 18:14 33.52352 -15.58792 23913 ft 432 kts 25°
2026-05-04 18:14 33.55002 -15.57068 24339 ft 434 kts 25°
2026-05-04 18:14 33.57655 -15.55327 24779 ft 436 kts 25°
2026-05-04 18:15 33.63000 -15.51787 25595 ft 441 kts 26°
2026-05-04 18:15 33.68404 -15.48186 26367 ft 446 kts 26°
2026-05-04 18:15 33.71120 -15.46371 26748 ft 448 kts 26°
2026-05-04 18:16 33.73854 -15.44543 27126 ft 451 kts 26°
2026-05-04 18:16 33.76606 -15.42702 27520 ft 453 kts 25°
2026-05-04 18:16 33.79370 -15.40853 27852 ft 456 kts 25°
2026-05-04 18:17 33.84952 -15.37114 28529 ft 461 kts 25°
2026-05-04 18:17 33.87726 -15.35253 28870 ft 463 kts 25°
2026-05-04 18:17 33.93383 -15.31455 29541 ft 468 kts 25°
2026-05-04 18:18 33.96232 -15.29539 29887 ft 471 kts 25°
2026-05-04 18:18 33.99098 -15.27612 30225 ft 473 kts 25°
2026-05-04 18:18 34.01977 -15.25673 30488 ft 475 kts 25°
2026-05-04 18:18 34.04864 -15.23728 30751 ft 477 kts 25°
2026-05-04 18:19 34.10692 -15.19797 31208 ft 481 kts 25°
2026-05-04 18:19 34.13611 -15.17825 31573 ft 480 kts 25°
2026-05-04 18:19 34.16514 -15.15860 31978 ft 477 kts 25°
2026-05-04 18:20 34.19409 -15.13900 32359 ft 476 kts 25°
2026-05-04 18:20 34.22304 -15.11940 32720 ft 476 kts 25°
2026-05-04 18:20 34.25195 -15.09981 33048 ft 476 kts 25°
2026-05-04 18:20 34.28076 -15.08028 33383 ft 475 kts 25°
2026-05-04 18:21 34.30952 -15.06076 33727 ft 474 kts 25°
2026-05-04 18:21 34.33820 -15.04128 34151 ft 470 kts 25°
2026-05-04 18:21 34.36657 -15.02198 34551 ft 466 kts 25°
2026-05-04 18:21 34.39485 -15.00274 34737 ft 468 kts 25°
2026-05-04 18:22 34.42339 -14.98333 34849 ft 471 kts 25°
2026-05-04 18:22 34.45201 -14.96386 35035 ft 472 kts 25°
2026-05-04 18:22 34.48061 -14.94436 35281 ft 472 kts 25°
2026-05-04 18:22 34.50930 -14.92479 35475 ft 472 kts 25°
2026-05-04 18:23 34.53800 -14.90519 35599 ft 475 kts 25°
2026-05-04 18:23 34.56652 -14.88570 35772 ft 476 kts 25°
2026-05-04 18:23 34.59534 -14.86599 36053 ft 475 kts 25°
2026-05-04 18:23 34.62411 -14.84629 36169 ft 477 kts 25°
2026-05-04 18:24 34.68221 -14.80647 36160 ft 479 kts 25°
2026-05-04 18:24 34.74009 -14.76672 36154 ft 474 kts 25°
2026-05-04 18:25 34.79696 -14.72759 36162 ft 471 kts 25°
2026-05-04 18:25 34.85397 -14.68834 36170 ft 470 kts 25°
2026-05-04 18:26 34.91086 -14.64911 36176 ft 471 kts 25°
2026-05-04 18:26 34.96793 -14.60969 36179 ft 472 kts 25°
2026-05-04 18:27 35.02525 -14.57003 36183 ft 474 kts 25°
2026-05-04 18:27 35.08279 -14.53015 36175 ft 477 kts 25°
2026-05-04 18:28 35.14065 -14.48998 36178 ft 479 kts 25°
2026-05-04 18:28 35.19873 -14.44959 36175 ft 481 kts 25°
2026-05-04 18:29 35.25702 -14.40898 36172 ft 483 kts 25°
2026-05-04 18:29 35.31537 -14.36825 36173 ft 483 kts 25°
2026-05-04 18:30 35.40260 -14.30724 36197 ft 483 kts 25°
2026-05-04 18:31 35.46094 -14.26636 36178 ft 482 kts 25°
2026-05-04 18:31 35.51915 -14.22550 36173 ft 482 kts 25°
2026-05-04 18:32 35.57725 -14.18465 36170 ft 481 kts 25°
2026-05-04 18:32 35.63525 -14.14381 36174 ft 480 kts 25°
2026-05-04 18:33 35.69312 -14.10298 36188 ft 480 kts 25°
2026-05-04 18:33 35.75103 -14.06206 36183 ft 480 kts 25°
2026-05-04 18:34 35.80853 -14.02137 36171 ft 480 kts 25°
2026-05-04 18:34 35.86639 -13.98034 36177 ft 480 kts 25°
2026-05-04 18:35 35.92431 -13.93920 36173 ft 480 kts 25°
2026-05-04 18:35 35.98224 -13.89799 36175 ft 480 kts 24°
2026-05-04 18:36 36.04008 -13.85676 36175 ft 480 kts 25°
2026-05-04 18:36 36.09784 -13.81551 36177 ft 479 kts 24°
2026-05-04 18:37 36.15525 -13.77446 36174 ft 478 kts 24°
2026-05-04 18:37 36.21291 -13.73316 36191 ft 477 kts 24°
2026-05-04 18:38 36.27027 -13.69199 36179 ft 476 kts 24°
2026-05-04 18:38 36.32761 -13.65077 36175 ft 475 kts 24°
2026-05-04 18:39 36.38442 -13.60986 36176 ft 474 kts 24°
2026-05-04 18:39 36.44135 -13.56880 36175 ft 473 kts 24°
2026-05-04 18:40 36.49826 -13.52768 36183 ft 473 kts 24°
2026-05-04 18:40 36.55509 -13.48654 36177 ft 472 kts 24°
2026-05-04 18:41 36.61181 -13.44542 36171 ft 472 kts 24°
2026-05-04 18:41 36.66868 -13.40471 36177 ft 471 kts 23°
2026-05-04 18:42 36.72573 -13.36462 36210 ft 471 kts 23°
2026-05-04 18:42 36.78283 -13.32446 36184 ft 471 kts 23°
2026-05-04 18:43 36.83990 -13.28411 36177 ft 472 kts 23°
2026-05-04 18:43 36.89704 -13.24358 36177 ft 472 kts 23°
2026-05-04 18:44 36.95383 -13.20320 36179 ft 472 kts 23°
2026-05-04 18:44 37.01095 -13.16253 36185 ft 473 kts 23°
2026-05-04 18:45 37.06808 -13.12178 36188 ft 473 kts 23°
2026-05-04 18:45 37.12528 -13.08091 36179 ft 473 kts 23°
2026-05-04 18:46 37.18243 -13.04001 36174 ft 473 kts 23°
2026-05-04 18:46 37.23956 -12.99904 36200 ft 473 kts 23°
2026-05-04 18:47 37.29663 -12.95805 36177 ft 473 kts 23°
2026-05-04 18:47 37.35376 -12.91694 36172 ft 473 kts 23°
2026-05-04 18:48 37.41081 -12.87582 36173 ft 472 kts 23°
2026-05-04 18:48 37.46779 -12.83467 36175 ft 472 kts 23°
2026-05-04 18:49 37.52433 -12.79378 36176 ft 472 kts 24°
2026-05-04 18:49 37.58117 -12.75259 36183 ft 471 kts 24°
2026-05-04 18:50 37.63796 -12.71136 36170 ft 471 kts 24°
2026-05-04 18:50 37.69461 -12.67016 36174 ft 470 kts 24°
2026-05-04 18:51 37.75127 -12.62888 36177 ft 469 kts 24°
2026-05-04 18:51 37.79820 -12.59464 36172 ft 469 kts 24°
2026-05-04 18:52 37.85468 -12.55336 36175 ft 468 kts 24°
2026-05-04 18:52 37.91112 -12.51203 36168 ft 468 kts 24°
2026-05-04 18:53 37.96754 -12.47065 36167 ft 469 kts 24°
2026-05-04 18:53 38.02403 -12.42915 36185 ft 469 kts 24°
2026-05-04 18:54 38.08052 -12.38756 36180 ft 469 kts 24°
2026-05-04 18:54 38.13662 -12.34619 36170 ft 469 kts 24°
2026-05-04 18:55 38.19302 -12.30451 36166 ft 469 kts 24°
2026-05-04 18:55 38.27753 -12.24193 36178 ft 469 kts 24°
2026-05-04 18:56 38.33387 -12.20011 36165 ft 468 kts 24°
2026-05-04 18:56 38.39012 -12.15829 36160 ft 468 kts 24°
2026-05-04 18:57 38.44627 -12.11646 36165 ft 467 kts 24°
2026-05-04 18:57 38.50220 -12.07473 36193 ft 466 kts 24°
2026-05-04 18:58 38.55837 -12.03273 36172 ft 466 kts 24°
2026-05-04 18:58 38.61439 -11.99078 36159 ft 466 kts 24°
2026-05-04 18:59 38.67034 -11.94880 36157 ft 466 kts 24°
2026-05-04 18:59 38.72596 -11.90699 36158 ft 466 kts 24°
2026-05-04 19:00 38.78192 -11.86485 36166 ft 467 kts 24°
2026-05-04 19:00 38.83796 -11.82257 36162 ft 467 kts 24°
2026-05-04 19:01 38.89398 -11.78022 36157 ft 467 kts 24°
2026-05-04 19:01 38.95001 -11.73779 36155 ft 467 kts 24°
2026-05-04 19:02 39.00601 -11.69530 36175 ft 468 kts 23°
2026-05-04 19:02 39.06206 -11.65270 36159 ft 468 kts 23°
2026-05-04 19:03 39.11809 -11.61003 36151 ft 468 kts 23°
2026-05-04 19:03 39.17408 -11.56732 36150 ft 467 kts 23°
2026-05-04 19:04 39.22996 -11.52460 36149 ft 467 kts 23°
2026-05-04 19:04 39.28580 -11.48184 36155 ft 467 kts 22°
2026-05-04 19:05 39.34134 -11.43922 36149 ft 466 kts 23°
2026-05-04 19:05 39.39707 -11.39638 36152 ft 466 kts 23°
2026-05-04 19:06 39.45267 -11.35356 36153 ft 465 kts 23°
2026-05-04 19:06 39.50828 -11.31066 36175 ft 465 kts 22°
2026-05-04 19:07 39.56394 -11.26763 36157 ft 465 kts 22°
2026-05-04 19:07 39.61947 -11.22463 36141 ft 465 kts 22°
2026-05-04 19:08 39.67493 -11.18159 36146 ft 464 kts 22°
2026-05-04 19:08 39.73035 -11.13851 36178 ft 464 kts 22°
2026-05-04 19:09 39.78546 -11.09559 36156 ft 465 kts 22°
2026-05-04 19:09 39.84094 -11.05229 36147 ft 465 kts 22°
2026-05-04 19:10 39.89638 -11.00895 36142 ft 464 kts 22°
2026-05-04 19:10 39.95172 -10.96560 36144 ft 464 kts 22°
2026-05-04 19:11 40.00712 -10.92213 36151 ft 465 kts 22°
2026-05-04 19:11 40.06254 -10.87856 36148 ft 465 kts 23°
2026-05-04 19:12 40.14567 -10.81302 36135 ft 465 kts 23°
2026-05-04 19:13 40.20102 -10.76928 36143 ft 465 kts 23°
2026-05-04 19:13 40.25637 -10.72547 36142 ft 465 kts 23°
2026-05-04 19:14 40.31179 -10.68150 36133 ft 465 kts 23°
2026-05-04 19:14 40.36715 -10.63751 36142 ft 465 kts 23°
2026-05-04 19:15 40.42248 -10.59345 36160 ft 465 kts 23°
2026-05-04 19:15 40.47736 -10.54968 36140 ft 467 kts 23°
2026-05-04 19:16 40.53298 -10.50521 36138 ft 466 kts 23°
2026-05-04 19:16 40.58846 -10.46077 36131 ft 466 kts 23°
2026-05-04 19:17 40.64383 -10.41632 36129 ft 466 kts 23°
2026-05-04 19:17 40.69925 -10.37177 36132 ft 467 kts 24°
2026-05-04 19:18 40.75459 -10.32717 36133 ft 466 kts 24°
2026-05-04 19:18 40.80986 -10.28255 36126 ft 465 kts 24°
2026-05-04 19:19 40.86503 -10.23791 36123 ft 465 kts 24°
2026-05-04 19:19 40.92011 -10.19328 36146 ft 465 kts 24°
2026-05-04 19:20 40.97524 -10.14852 36131 ft 464 kts 24°
2026-05-04 19:20 41.03027 -10.10374 36117 ft 464 kts 24°
2026-05-04 19:21 41.08525 -10.05890 36120 ft 464 kts 24°
2026-05-04 19:21 41.14025 -10.01397 36146 ft 464 kts 25°
2026-05-04 19:22 41.19478 -9.96934 36116 ft 464 kts 25°
2026-05-04 19:22 41.24966 -9.92432 36117 ft 464 kts 25°
2026-05-04 19:23 41.30444 -9.87929 36109 ft 463 kts 25°
2026-05-04 19:23 41.35926 -9.83415 36136 ft 463 kts 25°
2026-05-04 19:24 41.41416 -9.78886 36120 ft 464 kts 26°
2026-05-04 19:24 41.46907 -9.74346 36114 ft 464 kts 26°
2026-05-04 19:25 41.52354 -9.69833 36111 ft 464 kts 26°
2026-05-04 19:25 41.57832 -9.65285 36109 ft 463 kts 26°
2026-05-04 19:26 41.63307 -9.60730 36111 ft 463 kts 26°
2026-05-04 19:26 41.68773 -9.56173 36108 ft 463 kts 26°
2026-05-04 19:27 41.74238 -9.51609 36096 ft 462 kts 26°
2026-05-04 19:27 41.79690 -9.47045 36103 ft 462 kts 26°
2026-05-04 19:28 41.85139 -9.42475 36103 ft 462 kts 27°
2026-05-04 19:28 41.90578 -9.37905 36098 ft 461 kts 27°
2026-05-04 19:29 41.95707 -9.32748 36109 ft 467 kts 37°
2026-05-04 19:29 42.00504 -9.26837 36095 ft 468 kts 38°
2026-05-04 19:30 42.05278 -9.20887 36109 ft 467 kts 38°
2026-05-04 19:30 42.10073 -9.14984 36092 ft 467 kts 38°
2026-05-04 19:31 42.14882 -9.09105 36094 ft 467 kts 38°
2026-05-04 19:31 42.19694 -9.03224 36084 ft 467 kts 38°
2026-05-04 19:32 42.24504 -8.97331 36086 ft 467 kts 38°
2026-05-04 19:32 42.29315 -8.91421 36086 ft 468 kts 39°
2026-05-04 19:33 42.34126 -8.85499 36078 ft 468 kts 39°
2026-05-04 19:33 42.38917 -8.79588 36191 ft 472 kts 39°
2026-05-04 19:33 42.41341 -8.76592 36440 ft 471 kts 39°
2026-05-04 19:34 42.43757 -8.73602 36723 ft 470 kts 39°
2026-05-04 19:34 42.46165 -8.70618 36941 ft 470 kts 39°
2026-05-04 19:34 42.48587 -8.67616 37060 ft 472 kts 39°
2026-05-04 19:34 42.51002 -8.64618 37213 ft 473 kts 39°
2026-05-04 19:35 42.53434 -8.61598 37414 ft 474 kts 39°
2026-05-04 19:35 42.55863 -8.58574 37647 ft 473 kts 39°
2026-05-04 19:35 42.58287 -8.55556 37864 ft 473 kts 39°
2026-05-04 19:35 42.60707 -8.52537 38045 ft 472 kts 39°
2026-05-04 19:36 42.63131 -8.49512 38075 ft 475 kts 39°
2026-05-04 19:36 42.68008 -8.43415 38081 ft 475 kts 39°
2026-05-04 19:37 42.72829 -8.37373 38099 ft 472 kts 40°
2026-05-04 19:37 42.77642 -8.31327 38082 ft 470 kts 40°
2026-05-04 19:38 42.82437 -8.25293 38087 ft 468 kts 40°
2026-05-04 19:38 42.87211 -8.19271 38083 ft 467 kts 40°
2026-05-04 19:39 42.91981 -8.13242 38088 ft 468 kts 40°
2026-05-04 19:39 42.95947 -8.08220 38098 ft 469 kts 40°
2026-05-04 19:40 43.00738 -8.02138 38084 ft 471 kts 40°
2026-05-04 19:40 43.05540 -7.96030 38080 ft 472 kts 40°
2026-05-04 19:41 43.10364 -7.89880 38082 ft 474 kts 40°
2026-05-04 19:41 43.15197 -7.83703 38078 ft 475 kts 40°
2026-05-04 19:42 43.20000 -7.77552 38092 ft 476 kts 41°
2026-05-04 19:42 43.24831 -7.71348 38076 ft 476 kts 41°
2026-05-04 19:43 43.29653 -7.65143 38065 ft 475 kts 41°
2026-05-04 19:43 43.34461 -7.58943 38062 ft 474 kts 41°
2026-05-04 19:44 43.39253 -7.52749 38077 ft 472 kts 41°
2026-05-04 19:44 43.44026 -7.46566 38054 ft 471 kts 41°
2026-05-04 19:45 43.48782 -7.40391 38060 ft 469 kts 41°
2026-05-04 19:45 43.53519 -7.34226 38051 ft 468 kts 41°
2026-05-04 19:46 43.58244 -7.28063 38049 ft 467 kts 41°
2026-05-04 19:46 43.62954 -7.21906 38057 ft 466 kts 41°
2026-05-04 19:47 43.67664 -7.15735 38049 ft 466 kts 41°
2026-05-04 19:47 43.72370 -7.09555 38045 ft 466 kts 42°
2026-05-04 19:48 43.77072 -7.03367 38044 ft 467 kts 42°
2026-05-04 19:48 43.81777 -6.97160 38056 ft 468 kts 42°
2026-05-04 19:49 43.86493 -6.90924 38036 ft 469 kts 42°
2026-05-04 19:49 43.91207 -6.84676 38036 ft 469 kts 42°
2026-05-04 19:50 43.95924 -6.78410 38033 ft 470 kts 42°
2026-05-04 19:50 44.00618 -6.72160 38037 ft 470 kts 42°
2026-05-04 19:51 44.05345 -6.65852 38044 ft 471 kts 43°
2026-05-04 19:51 44.10069 -6.59532 38036 ft 471 kts 43°
2026-05-04 19:52 44.14793 -6.53198 38028 ft 471 kts 43°
2026-05-04 19:52 44.19501 -6.46870 38025 ft 470 kts 43°
2026-05-04 19:53 44.24204 -6.40535 38018 ft 470 kts 43°
2026-05-04 19:53 44.28897 -6.34198 38023 ft 469 kts 43°
2026-05-04 19:54 44.33583 -6.27856 38016 ft 469 kts 43°
2026-05-04 19:54 44.38265 -6.21505 38021 ft 468 kts 43°
2026-05-04 19:55 44.42903 -6.15198 38016 ft 468 kts 43°
2026-05-04 19:55 44.47573 -6.08832 38026 ft 468 kts 43°
2026-05-04 19:56 44.52227 -6.02473 38012 ft 468 kts 43°
2026-05-04 19:56 44.56883 -5.96096 38018 ft 468 kts 44°
2026-05-04 19:57 44.61537 -5.89707 38017 ft 468 kts 44°
2026-05-04 19:57 44.66186 -5.83311 38017 ft 468 kts 44°
2026-05-04 19:58 44.70855 -5.76918 38016 ft 468 kts 43°
2026-05-04 19:58 44.75533 -5.70522 38016 ft 469 kts 43°
2026-05-04 19:59 44.80205 -5.64116 38014 ft 469 kts 44°
2026-05-04 19:59 44.84853 -5.57722 38023 ft 470 kts 44°
2026-05-04 20:00 44.89535 -5.51264 38022 ft 470 kts 44°
2026-05-04 20:00 44.94209 -5.44799 38019 ft 470 kts 44°
2026-05-04 20:01 44.98874 -5.38333 38027 ft 470 kts 44°
2026-05-04 20:01 45.03536 -5.31854 38007 ft 470 kts 44°
2026-05-04 20:02 45.08200 -5.25358 38020 ft 470 kts 44°
2026-05-04 20:02 45.12827 -5.18898 38017 ft 470 kts 44°
2026-05-04 20:03 45.17474 -5.12393 38013 ft 469 kts 44°
2026-05-04 20:03 45.22107 -5.05893 38014 ft 469 kts 44°
2026-05-04 20:04 45.26740 -4.99378 38013 ft 469 kts 45°
2026-05-04 20:04 45.31371 -4.92849 38018 ft 468 kts 45°
2026-05-04 20:05 45.35993 -4.86316 38017 ft 468 kts 45°
2026-05-04 20:05 45.40612 -4.79772 38015 ft 468 kts 45°
2026-05-04 20:06 45.45226 -4.73219 38015 ft 468 kts 45°
2026-05-04 20:06 45.49808 -4.66695 38010 ft 468 kts 45°
2026-05-04 20:07 45.54414 -4.60123 38009 ft 469 kts 45°
2026-05-04 20:07 45.59020 -4.53533 38013 ft 469 kts 45°
2026-05-04 20:08 45.63626 -4.46927 38012 ft 469 kts 45°
2026-05-04 20:08 45.68225 -4.40314 38010 ft 469 kts 45°
2026-05-04 20:09 45.72824 -4.33685 38016 ft 469 kts 45°
2026-05-04 20:09 45.77420 -4.27045 38010 ft 469 kts 46°
2026-05-04 20:10 45.82019 -4.20382 38014 ft 469 kts 46°
2026-05-04 20:10 45.86597 -4.13735 38011 ft 468 kts 46°
2026-05-04 20:11 45.91142 -4.07118 38019 ft 468 kts 46°
2026-05-04 20:11 45.95708 -4.00455 38005 ft 467 kts 46°
2026-05-04 20:12 46.00258 -3.93798 37997 ft 466 kts 46°
2026-05-04 20:12 46.04798 -3.87140 38006 ft 465 kts 46°
2026-05-04 20:13 46.09318 -3.80494 38008 ft 464 kts 46°
2026-05-04 20:13 46.13836 -3.73834 38027 ft 466 kts 46°
2026-05-04 20:13 46.16107 -3.70479 38128 ft 468 kts 46°
2026-05-04 20:14 46.18382 -3.67116 38359 ft 467 kts 46°
2026-05-04 20:14 46.20645 -3.63765 38622 ft 466 kts 46°
2026-05-04 20:14 46.22904 -3.60416 38796 ft 465 kts 46°
2026-05-04 20:15 46.27404 -3.53733 38941 ft 469 kts 46°
2026-05-04 20:15 46.31963 -3.46945 39175 ft 470 kts 46°
2026-05-04 20:15 46.34241 -3.43546 39359 ft 469 kts 46°
2026-05-04 20:16 46.36502 -3.40169 39518 ft 468 kts 46°
2026-05-04 20:16 46.38773 -3.36773 39627 ft 469 kts 46°
2026-05-04 20:16 46.41044 -3.33372 39730 ft 469 kts 46°
2026-05-04 20:16 46.43309 -3.29976 39858 ft 469 kts 46°
2026-05-04 20:17 46.45574 -3.26574 39972 ft 468 kts 46°
2026-05-04 20:17 46.50109 -3.19751 39985 ft 471 kts 46°
2026-05-04 20:18 46.54661 -3.12888 40005 ft 472 kts 46°
2026-05-04 20:18 46.58685 -3.05470 40001 ft 471 kts 60°
2026-05-04 20:19 46.61952 -2.97193 40000 ft 471 kts 61°
2026-05-04 20:19 46.65189 -2.88899 39992 ft 471 kts 61°
2026-05-04 20:20 46.68460 -2.80646 39983 ft 470 kts 60°
2026-05-04 20:20 46.71745 -2.72399 39988 ft 469 kts 60°
2026-05-04 20:21 46.74989 -2.64235 39990 ft 468 kts 61°
2026-05-04 20:21 46.79854 -2.51930 39988 ft 466 kts 61°
2026-05-04 20:22 46.83082 -2.43735 39975 ft 465 kts 61°
2026-05-04 20:22 46.86461 -2.35666 39972 ft 465 kts 53°
2026-05-04 20:23 46.90889 -2.28779 39987 ft 465 kts 45°
2026-05-04 20:23 46.95471 -2.22148 39987 ft 466 kts 45°
2026-05-04 20:24 47.00059 -2.15434 39991 ft 466 kts 46°
2026-05-04 20:24 47.04618 -2.08667 39974 ft 467 kts 46°
2026-05-04 20:25 47.09172 -2.01858 39969 ft 468 kts 46°
2026-05-04 20:25 47.13724 -1.95031 39969 ft 468 kts 46°
2026-05-04 20:26 47.17518 -1.89330 39971 ft 469 kts 46°
2026-05-04 20:26 47.22082 -1.82456 39975 ft 470 kts 46°
2026-05-04 20:27 47.26650 -1.75559 39966 ft 470 kts 46°
2026-05-04 20:27 47.31213 -1.68652 39968 ft 471 kts 46°
2026-05-04 20:28 47.35780 -1.61721 39947 ft 471 kts 46°
2026-05-04 20:28 47.40307 -1.54832 39962 ft 470 kts 46°
2026-05-04 20:29 47.44855 -1.47891 39949 ft 470 kts 46°
2026-05-04 20:29 47.49397 -1.40943 39955 ft 470 kts 46°
2026-05-04 20:30 47.53933 -1.33986 39951 ft 469 kts 47°
2026-05-04 20:30 47.58460 -1.27022 39955 ft 469 kts 47°
2026-05-04 20:31 47.62981 -1.20051 39949 ft 469 kts 47°
2026-05-04 20:31 47.67498 -1.13067 39947 ft 468 kts 47°
2026-05-04 20:32 47.71975 -1.06125 39948 ft 468 kts 47°
2026-05-04 20:32 47.76502 -0.99088 39946 ft 468 kts 47°
2026-05-04 20:33 47.80989 -0.92095 39953 ft 468 kts 47°
2026-05-04 20:33 47.85453 -0.85117 39960 ft 467 kts 47°
2026-05-04 20:34 47.89928 -0.78105 39958 ft 467 kts 47°
2026-05-04 20:34 47.94405 -0.71071 39969 ft 467 kts 47°
2026-05-04 20:35 47.98868 -0.64039 39966 ft 467 kts 47°
2026-05-04 20:35 48.03337 -0.56979 39967 ft 467 kts 47°
2026-05-04 20:36 48.07796 -0.49915 39963 ft 467 kts 47°
2026-05-04 20:36 48.12255 -0.42833 39958 ft 468 kts 47°
2026-05-04 20:37 48.16689 -0.35770 39960 ft 468 kts 47°
2026-05-04 20:37 48.21150 -0.28647 39949 ft 468 kts 47°
2026-05-04 20:38 48.25604 -0.21513 39958 ft 468 kts 47°
2026-05-04 20:38 48.30029 -0.14407 39956 ft 469 kts 47°
2026-05-04 20:39 48.34475 -0.07249 39959 ft 469 kts 47°
2026-05-04 20:39 48.38882 0.00001 39942 ft 469 kts 49°
2026-05-04 20:40 48.43150 0.07419 39957 ft 468 kts 50°
2026-05-04 20:40 48.47398 0.14870 39960 ft 469 kts 50°
2026-05-04 20:41 48.51659 0.22314 39953 ft 469 kts 50°
2026-05-04 20:41 48.55922 0.29756 39954 ft 469 kts 50°
2026-05-04 20:42 48.60190 0.37221 39948 ft 469 kts 50°
2026-05-04 20:42 48.64412 0.44625 39940 ft 469 kts 50°
2026-05-04 20:43 48.68668 0.52113 39949 ft 468 kts 50°
2026-05-04 20:43 48.72904 0.59588 39943 ft 468 kts 50°
2026-05-04 20:44 48.77142 0.67086 39947 ft 467 kts 50°
2026-05-04 20:44 48.81356 0.74563 39944 ft 466 kts 50°
2026-05-04 20:45 48.85533 0.81989 38637 ft 434 kts 52°
2026-05-04 20:45 48.87714 0.85968 37306 ft 482 kts 49°
2026-05-04 20:45 48.89857 0.89508 39310 ft 445 kts 49°
2026-05-04 20:46 48.91976 0.93128 38409 ft 470 kts 50°
2026-05-04 20:46 48.94097 0.96924 38390 ft 470 kts 51°
2026-05-04 20:46 48.96190 1.00734 38611 ft 469 kts 51°
2026-05-04 20:46 48.98263 1.04521 38558 ft 472 kts 51°
2026-05-04 20:47 49.00368 1.08358 38749 ft 471 kts 51°
2026-05-04 20:47 49.02464 1.12170 39016 ft 468 kts 51°
2026-05-04 20:47 49.04550 1.15957 39251 ft 465 kts 51°
2026-05-04 20:47 49.06659 1.19782 39406 ft 465 kts 50°
2026-05-04 20:48 49.08719 1.23522 39534 ft 466 kts 50°
2026-05-04 20:48 49.10801 1.27306 39700 ft 465 kts 50°
2026-05-04 20:48 49.12877 1.31086 39868 ft 464 kts 50°
2026-05-04 20:48 49.14949 1.34865 39937 ft 465 kts 50°
2026-05-04 20:49 49.19110 1.42470 39962 ft 468 kts 50°
2026-05-04 20:49 49.23298 1.50147 39976 ft 470 kts 50°
2026-05-04 20:50 49.27591 1.57724 39974 ft 472 kts 45°
2026-05-04 20:50 49.32355 1.64646 39977 ft 472 kts 43°
2026-05-04 20:51 49.37183 1.71496 39964 ft 472 kts 43°
2026-05-04 20:51 49.41941 1.78415 39961 ft 470 kts 44°
2026-05-04 20:52 49.46660 1.85361 39962 ft 469 kts 44°
2026-05-04 20:52 49.51359 1.92288 39974 ft 467 kts 44°
2026-05-04 20:53 49.56048 1.99210 39966 ft 466 kts 44°
2026-05-04 20:53 49.60718 2.06123 39965 ft 465 kts 44°
2026-05-04 20:54 49.65373 2.13035 39967 ft 464 kts 44°
2026-05-04 20:54 49.69987 2.19904 39966 ft 463 kts 44°
2026-05-04 20:55 49.74621 2.26824 39958 ft 463 kts 44°
2026-05-04 20:55 49.79253 2.33760 39964 ft 463 kts 44°
2026-05-04 20:56 49.83888 2.40721 39958 ft 464 kts 44°
2026-05-04 20:56 49.88525 2.47704 39964 ft 465 kts 44°
2026-05-04 20:57 49.93166 2.54711 39969 ft 466 kts 44°
2026-05-04 20:57 49.97815 2.61758 39975 ft 467 kts 44°
2026-05-04 20:58 50.02457 2.68838 39970 ft 468 kts 45°
2026-05-04 20:58 50.07107 2.75955 39954 ft 469 kts 45°
2026-05-04 20:59 50.11723 2.83039 39957 ft 469 kts 45°
2026-05-04 20:59 50.16367 2.90184 39962 ft 469 kts 45°
2026-05-04 21:00 50.21020 2.97365 39718 ft 474 kts 45°
2026-05-04 21:00 50.23371 3.01000 39228 ft 477 kts 45°
2026-05-04 21:00 50.25725 3.04646 38694 ft 476 kts 45°
2026-05-04 21:01 50.28076 3.08292 38001 ft 476 kts 45°
2026-05-04 21:01 50.30420 3.11934 37389 ft 474 kts 45°
2026-05-04 21:01 50.32755 3.15567 36789 ft 473 kts 45°
2026-05-04 21:01 50.35085 3.19196 36209 ft 471 kts 45°
2026-05-04 21:02 50.37392 3.22794 35803 ft 466 kts 45°
2026-05-04 21:02 50.39736 3.26263 35354 ft 462 kts 39°
2026-05-04 21:02 50.42338 3.29166 34910 ft 458 kts 29°
2026-05-04 21:02 50.45178 3.31417 34461 ft 454 kts 24°
2026-05-04 21:03 50.48027 3.33528 34023 ft 452 kts 24°
2026-05-04 21:03 50.50811 3.35648 33547 ft 449 kts 25°
2026-05-04 21:03 50.53620 3.37742 33087 ft 445 kts 23°
2026-05-04 21:03 50.56437 3.39701 32655 ft 440 kts 22°
2026-05-04 21:04 50.59238 3.41594 32244 ft 436 kts 22°
2026-05-04 21:04 50.62014 3.43463 31844 ft 431 kts 22°
2026-05-04 21:04 50.64753 3.45319 31441 ft 427 kts 23°
2026-05-04 21:04 50.67468 3.47174 31035 ft 423 kts 23°
2026-05-04 21:05 50.70152 3.49019 30653 ft 419 kts 23°
2026-05-04 21:05 50.72814 3.50856 30261 ft 415 kts 23°
2026-05-04 21:05 50.75453 3.52683 29860 ft 411 kts 24°
2026-05-04 21:05 50.78053 3.54486 29442 ft 406 kts 24°
2026-05-04 21:06 50.80628 3.56273 29036 ft 401 kts 24°
2026-05-04 21:06 50.83170 3.58038 28641 ft 397 kts 24°
2026-05-04 21:06 50.85685 3.59786 28225 ft 393 kts 24°
2026-05-04 21:06 50.88145 3.61498 27851 ft 389 kts 24°
2026-05-04 21:07 50.90684 3.63067 27422 ft 386 kts 15°
2026-05-04 21:07 50.93257 3.63911 27065 ft 381 kts
2026-05-04 21:07 50.95890 3.64158 26680 ft 377 kts
2026-05-04 21:07 50.98511 3.64291 26287 ft 375 kts
2026-05-04 21:08 51.01108 3.64409 25915 ft 372 kts
2026-05-04 21:08 51.03689 3.64539 25537 ft 370 kts
2026-05-04 21:08 51.06253 3.64683 25163 ft 367 kts
2026-05-04 21:08 51.08800 3.64838 24796 ft 365 kts
2026-05-04 21:09 51.11333 3.64999 24425 ft 363 kts
2026-05-04 21:09 51.13854 3.65163 24057 ft 361 kts
2026-05-04 21:09 51.16360 3.65326 23692 ft 360 kts
2026-05-04 21:09 51.18860 3.65490 23283 ft 358 kts
2026-05-04 21:10 51.21344 3.65652 22868 ft 356 kts
2026-05-04 21:10 51.23809 3.65809 22483 ft 353 kts
2026-05-04 21:10 51.26256 3.65825 22138 ft 349 kts 358°
2026-05-04 21:10 51.28675 3.65744 21767 ft 347 kts 357°
2026-05-04 21:11 51.31081 3.65639 21404 ft 344 kts 357°
2026-05-04 21:11 51.33470 3.65537 21046 ft 342 kts 357°
2026-05-04 21:11 51.35839 3.65443 20688 ft 340 kts 358°
2026-05-04 21:11 51.38162 3.65358 20343 ft 337 kts 358°
2026-05-04 21:12 51.40503 3.65278 19993 ft 335 kts 358°
2026-05-04 21:12 51.42828 3.65202 19645 ft 333 kts 358°
2026-05-04 21:12 51.45144 3.65128 19297 ft 331 kts 358°
2026-05-04 21:12 51.47444 3.65055 18954 ft 330 kts 358°
2026-05-04 21:13 51.49734 3.64982 18615 ft 328 kts 359°
2026-05-04 21:13 51.51271 3.64934 18389 ft 327 kts 359°
2026-05-04 21:13 51.53516 3.64863 18013 ft 326 kts 359°
2026-05-04 21:13 51.55782 3.64792 17628 ft 324 kts 359°
2026-05-04 21:14 51.58032 3.64721 17263 ft 322 kts 359°
2026-05-04 21:14 51.60266 3.64651 16915 ft 320 kts 359°
2026-05-04 21:14 51.62482 3.64581 16573 ft 318 kts 359°
2026-05-04 21:14 51.64685 3.64511 16234 ft 315 kts 359°
2026-05-04 21:15 51.66867 3.64442 15907 ft 313 kts 359°
2026-05-04 21:15 51.69037 3.64374 15576 ft 311 kts 360°
2026-05-04 21:15 51.71153 3.64889 15220 ft 309 kts 23°
2026-05-04 21:15 51.72929 3.66774 14925 ft 306 kts 45°
2026-05-04 21:16 51.74209 3.69488 14616 ft 303 kts 56°
2026-05-04 21:16 51.75341 3.72354 14284 ft 302 kts 57°
2026-05-04 21:16 51.76452 3.75232 13955 ft 301 kts 57°
2026-05-04 21:16 51.77560 3.78101 13609 ft 300 kts 57°
2026-05-04 21:17 51.78666 3.80954 13250 ft 299 kts 57°
2026-05-04 21:17 51.79770 3.83787 12908 ft 297 kts 57°
2026-05-04 21:17 51.80871 3.86605 12583 ft 296 kts 57°
2026-05-04 21:17 51.81967 3.89404 12260 ft 294 kts 57°
2026-05-04 21:18 51.83056 3.92187 11938 ft 292 kts 57°
2026-05-04 21:18 51.84141 3.94960 11629 ft 291 kts 57°
2026-05-04 21:18 51.85219 3.97717 11310 ft 289 kts 57°
2026-05-04 21:18 51.86294 4.00465 10994 ft 288 kts 57°
2026-05-04 21:19 51.87361 4.03197 10676 ft 287 kts 57°
2026-05-04 21:19 51.88423 4.05922 10359 ft 286 kts 57°
2026-05-04 21:19 51.89474 4.08620 10211 ft 279 kts 57°
2026-05-04 21:19 51.90550 4.11125 10043 ft 272 kts 45°
2026-05-04 21:20 51.92123 4.12693 9869 ft 267 kts 17°
2026-05-04 21:20 51.93970 4.13066 9627 ft 270 kts 358°
2026-05-04 21:20 51.95863 4.12868 9358 ft 275 kts 355°
2026-05-04 21:20 51.97786 4.12616 9082 ft 279 kts 355°
2026-05-04 21:21 51.99720 4.12375 8795 ft 278 kts 355°
2026-05-04 21:21 52.01646 4.12153 8518 ft 276 kts 355°
2026-05-04 21:21 52.03560 4.11941 8249 ft 275 kts 355°
2026-05-04 21:21 52.05463 4.11734 7993 ft 273 kts 356°
2026-05-04 21:22 52.07337 4.12077 7698 ft 273 kts 21°
2026-05-04 21:22 52.09051 4.13362 7462 ft 270 kts 25°
2026-05-04 21:22 52.10745 4.14679 7194 ft 269 kts 25°
2026-05-04 21:22 52.12435 4.15981 6936 ft 268 kts 25°
2026-05-04 21:23 52.14121 4.17270 6673 ft 267 kts 25°
2026-05-04 21:23 52.15800 4.18549 6415 ft 266 kts 25°
2026-05-04 21:23 52.17477 4.19825 6141 ft 265 kts 25°
2026-05-04 21:23 52.19142 4.21096 5873 ft 264 kts 26°
2026-05-04 21:24 52.20564 4.22926 5592 ft 263 kts 54°
2026-05-04 21:24 52.21382 4.25563 5364 ft 260 kts 68°
2026-05-04 21:24 52.21993 4.28330 5113 ft 259 kts 70°
2026-05-04 21:24 52.22577 4.31061 4863 ft 258 kts 70°
2026-05-04 21:25 52.23176 4.33817 4586 ft 251 kts 69°
2026-05-04 21:25 52.23486 4.36515 4303 ft 244 kts 96°
2026-05-04 21:25 52.23022 4.39134 4124 ft 239 kts 112°
2026-05-04 21:25 52.22329 4.41567 3884 ft 238 kts 115°
2026-05-04 21:26 52.21611 4.43983 3670 ft 235 kts 115°
2026-05-04 21:26 52.20947 4.46361 3443 ft 227 kts 105°
2026-05-04 21:26 52.20805 4.48862 3210 ft 217 kts 89°
2026-05-04 21:26 52.20790 4.51275 2991 ft 208 kts 88°
2026-05-04 21:27 52.21114 4.53437 2859 ft 191 kts 56°
2026-05-04 21:27 52.21876 4.55157 2621 ft 185 kts 58°
2026-05-04 21:27 52.22517 4.56938 2383 ft 180 kts 58°
2026-05-04 21:27 52.23155 4.58661 2152 ft 175 kts 57°
2026-05-04 21:28 52.23792 4.60339 1906 ft 172 kts 57°
2026-05-04 21:28 52.24400 4.61932 1703 ft 159 kts 57°
2026-05-04 21:28 52.24953 4.63381 1479 ft 142 kts 56°
2026-05-04 21:28 52.25443 4.64664 1333 ft 130 kts 54°
2026-05-04 21:29 52.25919 4.65897 1139 ft 128 kts 55°
2026-05-04 21:29 52.26369 4.67115 958 ft 124 kts 56°
2026-05-04 21:29 52.26821 4.68318 804 ft 126 kts 55°
2026-05-04 21:29 52.27304 4.69541 651 ft 131 kts 54°
2026-05-04 21:30 52.27800 4.70837 463 ft 136 kts 55°
2026-05-04 21:30 52.28300 4.72131 268 ft 135 kts 52°
2026-05-04 21:30 52.28785 4.73401 120 ft 129 kts 54°
2026-05-04 21:30 52.29258 4.74620 1 ft 119 kts 53°
2026-05-04 21:31 52.29866 4.76206 -4 ft 56 kts 58°
2026-05-04 21:31 52.30000 4.76504 -3 ft 17 kts 36°
2026-05-04 21:31 52.30096 4.76598 -2 ft 12 kts 27°
2026-05-04 21:32 52.30173 4.76662 -2 ft 12 kts 29°
2026-05-04 21:32 52.30230 4.76714 -2 ft 3 kts 28°
2026-05-04 21:32 52.30244 4.76726 -2 ft 5 kts 27°
2026-05-04 21:33 52.30303 4.76740 -2 ft 11 kts 348°
2026-05-04 21:33 52.30378 4.76746 -2 ft 10 kts 48°
2026-05-04 21:33 52.30422 4.76823 -2 ft 9 kts 11°
2026-05-04 21:33 52.30464 4.76779 -2 ft 0 kts 323°
2026-05-04 21:34 52.30466 4.76777 -2 ft 1 kts 326°
2026-05-04 21:34 52.30468 4.76775 -2 ft 0 kts 325°